Location: �couen
(49.0206°N, 2.3831°E)
Time: 00:21:34
(UTC+00:00)

ATLAS 3B R/B - Pass Details

Date: 27 May 2022
Orbit: 976 x 1218 km, 63.8° (Epoch: 20 June)

Event Time Altitude Azimuth Distance (km) Brightness Sun altitude
Rises 23:51:39 0° 307° (NW) 4,011 6.2 -19.5°
Reaches altitude 10° 23:55:53 10° 285° (WNW) 3,090 5.3 -19.5°
Maximum altitude 23:59:20 14° 256° (WSW) 2,824 4.7 -19.5°
Enters shadow 00:01:56 12° 235° (SW) 3,006 4.7 -19.5°
